Zurück zum Katalog

STARLINK-32323

AktivKommunikationVLEO
NORAD 61677·PAYLOAD·🇺🇸 United States

Gestartet Oct 26, 2024 von Cape Canaveral Space Force Station

Loading…

Nächste Überflüge (nächste 24 Stunden)

TLE

AktuellSource: CelesTrak SupGP

Epoche: Sep 14, 2026, 15:24 UTC

1 61677C 24193S   26257.64215278 -.00000405  00000+0 -11981-4 0  2574
2 61677  53.1579 288.8553 0001239  82.4989 123.9369 15.34383042    10

Verfolge STARLINK-32323 in Echtzeit mit AllMySat

Download on the App Store